Location: Pardubice
(50.0618°N, 15.7556°E)
Time: 15:47:07
(UTC+02:00)

ISS - Pass Details

Date: 25 May 2018
Orbit: 402 x 406 km, 51.6° (Epoch: 18 June)

Event Time Altitude Azimuth Distance (km) Brightness Sun altitude
Rises 00:25:01 0° 281° (WNW) 2,322 0.3 -18.8°
Reaches altitude 10° 00:27:07 10° 284° (WNW) 1,461 -0.8 -18.8°
Maximum altitude 00:30:23 71° 9° (N) 431 -3.6 -18.9°
Enters shadow 00:32:25 21° 91° (E) 969 -2.0 -18.9°
